When you browse on this site, cookies collect data to enhance your experience and personalize the content and advertising you see.
Visit our Privacy Policy to learn more. By continuing to use the site, you agree to this use of cookies and data.
  • Em Portugal
  • Lista de países
  • Para 7 dias
  • Temperatura da água
  • Mapa do tempo
  • Widgets de tempo
  • user-avatar
    Iniciar Sessão

    Previsão horária em Ruse

    Hoje, 1 Abril, Quarta-feira

    Tempo Temperatura Precipitação Vento Pressão Humidade
    00:00 +2°C° 0 mm 3 m/s 760 mmHg 52%
    01:00 +2°C° 0 mm 3 m/s 760 mmHg 52%
    02:00 +2°C° 0 mm 2 m/s 760 mmHg 50%
    03:00 +1°C° 0.1 mm 3 m/s 760 mmHg 56%
    04:00 0°C° 0.1 mm 3 m/s 760 mmHg 61%
    05:00 0°C° 0.1 mm 3 m/s 760 mmHg 66%
    06:00 -1°C° 0.1 mm 4 m/s 760 mmHg 65%
    07:00 -1°C° 0.1 mm 4 m/s 760 mmHg 64%
    08:00 0°C° 0 mm 5 m/s 760 mmHg 68%
    09:00 0°C° 0 mm 5 m/s 760 mmHg 66%
    10:00 +1°C° 0 mm 5 m/s 760 mmHg 64%
    11:00 +2°C° 0 mm 6 m/s 760 mmHg 63%
    12:00 +3°C° 0 mm 5 m/s 759 mmHg 61%
    13:00 +5°C° 0 mm 5 m/s 759 mmHg 58%
    14:00 +6°C° 0 mm 5 m/s 759 mmHg 56%
    15:00 +6°C° 0 mm 5 m/s 758 mmHg 58%
    16:00 +6°C° 0 mm 5 m/s 758 mmHg 59%
    17:00 +6°C° 0 mm 5 m/s 757 mmHg 61%
    18:00 +5°C° 0 mm 5 m/s 757 mmHg 66%
    19:00 +4°C° 0 mm 4 m/s 757 mmHg 71%
    20:00 +3°C° 0 mm 3 m/s 758 mmHg 76%
    21:00 +3°C° 0 mm 3 m/s 758 mmHg 76%
    22:00 +1°C° 0 mm 4 m/s 758 mmHg 76%
    23:00 +1°C° 0 mm 4 m/s 758 mmHg 77%

    Amanhã, 2 Abril, Quinta-feira

    Tempo Temperatura Precipitação Vento Pressão Humidade
    00:00 +1°C° 0 mm 3 m/s 758 mmHg 76%
    01:00 +1°C° 0 mm 3 m/s 758 mmHg 75%
    02:00 0°C° 0 mm 3 m/s 758 mmHg 74%
    03:00 +1°C° 0 mm 2 m/s 758 mmHg 75%
    04:00 +1°C° 0 mm 2 m/s 757 mmHg 76%
    05:00 -1°C° 0 mm 2 m/s 757 mmHg 77%
    06:00 +1°C° 0 mm 2 m/s 757 mmHg 73%
    07:00 +2°C° 0 mm 2 m/s 757 mmHg 69%
    08:00 +2°C° 0 mm 3 m/s 758 mmHg 64%
    09:00 +4°C° 0 mm 3 m/s 757 mmHg 60%
    10:00 +5°C° 0 mm 3 m/s 757 mmHg 56%
    11:00 +8°C° 0 mm 3 m/s 757 mmHg 52%
    12:00 +8°C° 0 mm 2 m/s 757 mmHg 50%
    13:00 +9°C° 0 mm 2 m/s 756 mmHg 48%
    14:00 +10°C° 0 mm 2 m/s 756 mmHg 47%
    15:00 +10°C° 0 mm 2 m/s 756 mmHg 47%
    16:00 +10°C° 0 mm 2 m/s 755 mmHg 47%
    17:00 +10°C° 0 mm 2 m/s 755 mmHg 47%
    18:00 +10°C° 0 mm 1 m/s 755 mmHg 52%
    19:00 +9°C° 0 mm 1 m/s 755 mmHg 58%
    20:00 +6°C° 0 mm 0 m/s 756 mmHg 63%
    21:00 +7°C° 0 mm 1 m/s 756 mmHg 67%
    22:00 +6°C° 0 mm 1 m/s 756 mmHg 70%
    23:00 +5°C° 0 mm 1 m/s 756 mmHg 73%

    Depois de amanhã, 3 Abril, Sexta-feira

    Tempo Temperatura Precipitação Vento Pressão Humidade
    00:00 +5°C° 0 mm 1 m/s 756 mmHg 76%
    01:00 +4°C° 0 mm 1 m/s 756 mmHg 79%
    02:00 +3°C° 0 mm 0 m/s 755 mmHg 83%
    03:00 +3°C° 0 mm 0 m/s 755 mmHg 84%
    04:00 +3°C° 0 mm 1 m/s 755 mmHg 85%
    05:00 +3°C° 0 mm 1 m/s 755 mmHg 86%
    06:00 +4°C° 0 mm 1 m/s 755 mmHg 81%
    07:00 +6°C° 0 mm 1 m/s 755 mmHg 76%
    08:00 +7°C° 0 mm 1 m/s 755 mmHg 72%
    09:00 +9°C° 0 mm 1 m/s 755 mmHg 65%
    10:00 +11°C° 0 mm 1 m/s 755 mmHg 58%
    11:00 +13°C° 0 mm 1 m/s 755 mmHg 51%
    12:00 +14°C° 0 mm 1 m/s 754 mmHg 49%
    13:00 +15°C° 0 mm 1 m/s 754 mmHg 47%
    14:00 +16°C° 0 mm 1 m/s 754 mmHg 45%
    15:00 +16°C° 0 mm 1 m/s 754 mmHg 46%
    16:00 +16°C° 0 mm 1 m/s 754 mmHg 47%
    17:00 +16°C° 0 mm 1 m/s 753 mmHg 47%
    18:00 +14°C° 0 mm 1 m/s 754 mmHg 53%
    19:00 +12°C° 0 mm 1 m/s 754 mmHg 59%
    20:00 +10°C° 0 mm 1 m/s 755 mmHg 65%
    21:00 +10°C° 0 mm 1 m/s 755 mmHg 67%
    22:00 +9°C° 0 mm 1 m/s 755 mmHg 69%
    23:00 +8°C° 0 mm 0 m/s 756 mmHg 72%

    4 Abril, Sábado

    Tempo Temperatura Precipitação Vento Pressão Humidade
    00:00 +7°C° 0 mm 0 m/s 756 mmHg 74%
    01:00 +7°C° 0 mm 0 m/s 756 mmHg 76%
    02:00 +7°C° 0 mm 0 m/s 756 mmHg 78%
    03:00 +7°C° 0 mm 0 m/s 756 mmHg 79%
    04:00 +7°C° 0 mm 0 m/s 756 mmHg 79%
    05:00 +7°C° 0 mm 0 m/s 756 mmHg 79%
    06:00 +7°C° 0 mm 0 m/s 756 mmHg 77%
    07:00 +8°C° 0 mm 0 m/s 757 mmHg 74%
    08:00 +9°C° 0 mm 0 m/s 757 mmHg 72%
    09:00 +10°C° 0 mm 0 m/s 757 mmHg 69%
    10:00 +11°C° 0 mm 0 m/s 757 mmHg 67%
    11:00 +13°C° 0 mm 1 m/s 757 mmHg 64%
    12:00 +13°C° 0 mm 1 m/s 757 mmHg 62%
    13:00 +14°C° 0 mm 2 m/s 757 mmHg 60%
    14:00 +15°C° 0 mm 2 m/s 757 mmHg 58%
    15:00 +14°C° 0 mm 2 m/s 757 mmHg 61%
    16:00 +14°C° 0 mm 2 m/s 757 mmHg 63%
    17:00 +13°C° 0 mm 3 m/s 757 mmHg 66%
    18:00 +13°C° 0 mm 2 m/s 758 mmHg 68%
    19:00 +12°C° 0 mm 2 m/s 758 mmHg 70%
    20:00 +12°C° 0 mm 1 m/s 759 mmHg 71%
    21:00 +11°C° 0 mm 1 m/s 759 mmHg 72%
    22:00 +11°C° 0 mm 1 m/s 759 mmHg 73%
    23:00 +10°C° 0 mm 1 m/s 760 mmHg 74%

    5 Abril, Domingo

    Tempo Temperatura Precipitação Vento Pressão Humidade
    00:00 +10°C° 0 mm 1 m/s 760 mmHg 76%
    01:00 +9°C° 0 mm 1 m/s 760 mmHg 77%
    02:00 +9°C° 0 mm 1 m/s 760 mmHg 79%
    03:00 +7°C° 0 mm 2 m/s 761 mmHg 79%
    04:00 +7°C° 0 mm 2 m/s 761 mmHg 80%
    05:00 +5°C° 0 mm 3 m/s 761 mmHg 81%
    06:00 +6°C° 0 mm 4 m/s 761 mmHg 76%
    07:00 +7°C° 0 mm 5 m/s 762 mmHg 70%
    08:00 +8°C° 0 mm 6 m/s 762 mmHg 65%
    09:00 +9°C° 0 mm 7 m/s 762 mmHg 61%
    10:00 +11°C° 0 mm 7 m/s 762 mmHg 57%
    11:00 +13°C° 0 mm 8 m/s 762 mmHg 52%
    12:00 +13°C° 0 mm 8 m/s 762 mmHg 53%
    13:00 +13°C° 0 mm 8 m/s 762 mmHg 53%
    14:00 +13°C° 0 mm 9 m/s 761 mmHg 53%
    15:00 +13°C° 0 mm 8 m/s 761 mmHg 52%
    16:00 +14°C° 0 mm 7 m/s 762 mmHg 51%
    17:00 +14°C° 0 mm 7 m/s 762 mmHg 50%
    18:00 +13°C° 0 mm 6 m/s 762 mmHg 49%
    19:00 +10°C° 0 mm 5 m/s 763 mmHg 48%
    20:00 +9°C° 0 mm 5 m/s 764 mmHg 47%
    21:00 +8°C° 0 mm 4 m/s 764 mmHg 49%
    22:00 +8°C° 0 mm 3 m/s 765 mmHg 51%
    23:00 +5°C° 0 mm 3 m/s 765 mmHg 53%

    6 Abril, Segunda-feira

    Tempo Temperatura Precipitação Vento Pressão Humidade
    00:00 +5°C° 0 mm 3 m/s 766 mmHg 52%
    01:00 +5°C° 0 mm 4 m/s 766 mmHg 52%
    02:00 +4°C° 0 mm 4 m/s 767 mmHg 52%
    03:00 +4°C° 0 mm 4 m/s 767 mmHg 52%
    04:00 +3°C° 0 mm 4 m/s 768 mmHg 52%
    05:00 +1°C° 0 mm 4 m/s 769 mmHg 52%
    06:00 +2°C° 0 mm 5 m/s 769 mmHg 48%
    07:00 +2°C° 0 mm 6 m/s 770 mmHg 45%
    08:00 +3°C° 0 mm 7 m/s 770 mmHg 41%
    09:00 +4°C° 0 mm 7 m/s 771 mmHg 39%
    10:00 +6°C° 0 mm 7 m/s 771 mmHg 37%
    11:00 +8°C° 0 mm 7 m/s 771 mmHg 34%
    12:00 +9°C° 0 mm 6 m/s 771 mmHg 34%
    13:00 +9°C° 0 mm 6 m/s 771 mmHg 34%
    14:00 +10°C° 0 mm 6 m/s 770 mmHg 34%
    15:00 +10°C° 0 mm 6 m/s 770 mmHg 35%
    16:00 +10°C° 0 mm 6 m/s 770 mmHg 36%
    17:00 +10°C° 0 mm 5 m/s 770 mmHg 37%
    18:00 +8°C° 0 mm 5 m/s 771 mmHg 39%
    19:00 +7°C° 0 mm 4 m/s 771 mmHg 41%
    20:00 +5°C° 0 mm 4 m/s 772 mmHg 43%
    21:00 +4°C° 0 mm 3 m/s 772 mmHg 46%
    22:00 +3°C° 0 mm 3 m/s 773 mmHg 50%
    23:00 +2°C° 0 mm 3 m/s 773 mmHg 53%
    Mostrar mais